Year,Month,Day,Hour,Minute,Value (Times are PST for temperature in C)
2021,02,02,00,00,5.60
2021,02,02,00,01,5.60
2021,02,02,00,02,5.60
2021,02,02,00,03,5.60
2021,02,02,00,04,5.60
2021,02,02,00,05,5.60
2021,02,02,00,06,5.60
2021,02,02,00,07,5.60
2021,02,02,00,08,5.60
2021,02,02,00,09,5.60
2021,02,02,00,10,5.60
2021,02,02,00,11,5.60
2021,02,02,00,12,5.60
2021,02,02,00,13,5.60
2021,02,02,00,14,5.60
2021,02,02,00,15,5.60
2021,02,02,00,16,5.60
2021,02,02,00,17,5.60
2021,02,02,00,18,5.60
2021,02,02,00,19,5.60
2021,02,02,00,20,5.60
2021,02,02,00,21,5.60
2021,02,02,00,22,5.60
2021,02,02,00,23,5.60
2021,02,02,00,24,5.60
2021,02,02,00,25,5.60
2021,02,02,00,26,5.60
2021,02,02,00,27,5.60
2021,02,02,00,28,5.60
2021,02,02,00,29,5.60
2021,02,02,00,30,5.60
2021,02,02,00,31,5.60
2021,02,02,00,32,5.60
2021,02,02,00,33,5.60
2021,02,02,00,34,5.60
2021,02,02,00,35,5.60
2021,02,02,00,36,5.60
2021,02,02,00,37,5.60
2021,02,02,00,38,5.60
2021,02,02,00,39,5.50
2021,02,02,00,40,5.50
2021,02,02,00,41,5.50
2021,02,02,00,42,5.50
2021,02,02,00,43,5.50
2021,02,02,00,44,5.40
2021,02,02,00,45,5.40
2021,02,02,00,46,5.40
2021,02,02,00,47,5.40
2021,02,02,00,48,5.40
2021,02,02,00,49,5.40
2021,02,02,00,50,5.40
2021,02,02,00,51,5.40
2021,02,02,00,52,5.30
2021,02,02,00,53,5.30
2021,02,02,00,54,5.30
2021,02,02,00,55,5.30
2021,02,02,00,56,5.30
2021,02,02,00,57,5.30
2021,02,02,00,58,5.30
2021,02,02,00,59,5.30
2021,02,02,01,00,5.30
2021,02,02,01,01,5.30
2021,02,02,01,02,5.30
2021,02,02,01,03,5.30
2021,02,02,01,04,5.30
2021,02,02,01,05,5.20
2021,02,02,01,06,5.20
2021,02,02,01,07,5.20
2021,02,02,01,08,5.20
2021,02,02,01,09,5.20
2021,02,02,01,10,5.20
2021,02,02,01,11,5.20
2021,02,02,01,12,5.20
2021,02,02,01,13,5.20
2021,02,02,01,14,5.20
2021,02,02,01,15,5.20
2021,02,02,01,16,5.10
2021,02,02,01,17,5.10
2021,02,02,01,18,5.10
2021,02,02,01,19,5.10
2021,02,02,01,20,5.10
2021,02,02,01,21,5.10
2021,02,02,01,22,5.10
2021,02,02,01,23,5.10
2021,02,02,01,24,5.10
2021,02,02,01,25,5.10
2021,02,02,01,26,5.10
2021,02,02,01,27,5.10
2021,02,02,01,28,5.10
2021,02,02,01,29,5.10
2021,02,02,01,30,5.00
2021,02,02,01,31,5.00
2021,02,02,01,32,5.00
2021,02,02,01,33,5.00
2021,02,02,01,34,5.00
2021,02,02,01,35,5.00
2021,02,02,01,36,5.00
2021,02,02,01,37,5.00
2021,02,02,01,38,5.00
2021,02,02,01,39,5.00
2021,02,02,01,40,5.00
2021,02,02,01,41,4.90
2021,02,02,01,42,4.90
2021,02,02,01,43,4.90
2021,02,02,01,44,4.90
2021,02,02,01,45,4.90
2021,02,02,01,46,4.90
2021,02,02,01,47,4.90
2021,02,02,01,48,4.90
2021,02,02,01,49,4.90
2021,02,02,01,50,4.90
2021,02,02,01,51,4.90
2021,02,02,01,52,4.90
2021,02,02,01,53,4.90
2021,02,02,01,54,4.90
2021,02,02,01,55,4.90
2021,02,02,01,56,4.90
2021,02,02,01,57,4.90
2021,02,02,01,58,4.80
2021,02,02,01,59,4.80
2021,02,02,02,00,4.80
2021,02,02,02,01,4.80
2021,02,02,02,02,4.80
2021,02,02,02,03,4.80
2021,02,02,02,04,4.80
2021,02,02,02,05,4.80
2021,02,02,02,06,4.80
2021,02,02,02,07,4.80
2021,02,02,02,08,4.80
2021,02,02,02,09,4.80
2021,02,02,02,10,4.80
2021,02,02,02,11,4.80
2021,02,02,02,12,4.90
2021,02,02,02,13,4.90
2021,02,02,02,14,4.90
2021,02,02,02,15,4.90
2021,02,02,02,16,4.90
2021,02,02,02,17,4.90
2021,02,02,02,18,4.90
2021,02,02,02,19,4.90
2021,02,02,02,20,4.90
2021,02,02,02,21,4.90
2021,02,02,02,22,4.90
2021,02,02,02,23,4.90
2021,02,02,02,24,4.90
2021,02,02,02,25,4.90
2021,02,02,02,26,4.90
2021,02,02,02,27,4.90
2021,02,02,02,28,4.90
2021,02,02,02,29,4.90
2021,02,02,02,30,4.90
2021,02,02,02,31,4.90
2021,02,02,02,32,4.90
2021,02,02,02,33,4.90
2021,02,02,02,34,4.90
2021,02,02,02,35,4.90
2021,02,02,02,36,4.90
2021,02,02,02,37,4.90
2021,02,02,02,38,4.90
2021,02,02,02,39,4.90
2021,02,02,02,40,4.90
2021,02,02,02,41,4.90
2021,02,02,02,42,4.90
2021,02,02,02,43,4.90
2021,02,02,02,44,4.90
2021,02,02,02,45,4.90
2021,02,02,02,46,4.90
2021,02,02,02,47,4.90
2021,02,02,02,48,4.90
2021,02,02,02,49,4.90
2021,02,02,02,50,4.90
2021,02,02,02,51,4.90
2021,02,02,02,52,4.90
2021,02,02,02,53,4.90
2021,02,02,02,54,4.90
2021,02,02,02,55,4.90
2021,02,02,02,56,4.90
2021,02,02,02,57,4.90
2021,02,02,02,58,4.80
2021,02,02,02,59,4.90
2021,02,02,03,00,4.90
2021,02,02,03,01,4.80
2021,02,02,03,02,4.80
2021,02,02,03,03,4.80
2021,02,02,03,04,4.80
2021,02,02,03,05,4.80
2021,02,02,03,06,4.80
2021,02,02,03,07,4.80
2021,02,02,03,08,4.80
2021,02,02,03,09,4.80
2021,02,02,03,10,4.80
2021,02,02,03,11,4.80
2021,02,02,03,12,4.80
2021,02,02,03,13,4.80
2021,02,02,03,14,4.80
2021,02,02,03,15,4.80
2021,02,02,03,16,4.80
2021,02,02,03,17,4.80
2021,02,02,03,18,4.80
2021,02,02,03,19,4.80
2021,02,02,03,20,4.80
2021,02,02,03,21,4.80
2021,02,02,03,22,4.80
2021,02,02,03,23,4.80
2021,02,02,03,24,4.80
2021,02,02,03,25,4.80
2021,02,02,03,26,4.80
2021,02,02,03,27,4.80
2021,02,02,03,28,4.80
2021,02,02,03,29,4.70
2021,02,02,03,30,4.70
2021,02,02,03,31,4.70
2021,02,02,03,32,4.70
2021,02,02,03,33,4.70
2021,02,02,03,34,4.70
2021,02,02,03,35,4.70
2021,02,02,03,36,4.70
2021,02,02,03,37,4.70
2021,02,02,03,38,4.70
2021,02,02,03,39,4.70
2021,02,02,03,40,4.70
2021,02,02,03,41,4.70
2021,02,02,03,42,4.70
2021,02,02,03,43,4.60
2021,02,02,03,44,4.60
2021,02,02,03,45,4.60
2021,02,02,03,46,4.60
2021,02,02,03,47,4.60
2021,02,02,03,48,4.60
2021,02,02,03,49,4.60
2021,02,02,03,50,4.60
2021,02,02,03,51,4.60
2021,02,02,03,52,4.60
2021,02,02,03,53,4.60
2021,02,02,03,54,4.60
2021,02,02,03,55,4.60
2021,02,02,03,56,4.60
2021,02,02,03,57,4.60
2021,02,02,03,58,4.50
2021,02,02,03,59,4.50
2021,02,02,04,00,4.50
2021,02,02,04,01,4.50
2021,02,02,04,02,4.50
2021,02,02,04,03,4.50
2021,02,02,04,04,4.50
2021,02,02,04,05,4.50
2021,02,02,04,06,4.50
2021,02,02,04,07,4.50
2021,02,02,04,08,4.50
2021,02,02,04,09,4.50
2021,02,02,04,10,4.50
2021,02,02,04,11,4.50
2021,02,02,04,12,4.50
2021,02,02,04,13,4.50
2021,02,02,04,14,4.50
2021,02,02,04,15,4.50
2021,02,02,04,16,4.50
2021,02,02,04,17,4.50
2021,02,02,04,18,4.50
2021,02,02,04,19,4.50
2021,02,02,04,20,4.50
2021,02,02,04,21,4.50
2021,02,02,04,22,4.50
2021,02,02,04,23,4.50
2021,02,02,04,24,4.50
2021,02,02,04,25,4.50
2021,02,02,04,26,4.50
2021,02,02,04,27,4.40
2021,02,02,04,28,4.40
2021,02,02,04,29,4.40
2021,02,02,04,30,4.50
2021,02,02,04,31,4.40
2021,02,02,04,32,4.50
2021,02,02,04,33,4.40
2021,02,02,04,34,4.50
2021,02,02,04,35,4.40
2021,02,02,04,36,4.40
2021,02,02,04,37,4.40
2021,02,02,04,38,4.40
2021,02,02,04,39,4.50
2021,02,02,04,40,4.40
2021,02,02,04,41,4.40
2021,02,02,04,42,4.40
2021,02,02,04,43,4.40
2021,02,02,04,44,4.40
2021,02,02,04,45,4.40
2021,02,02,04,46,4.40
2021,02,02,04,47,4.40
2021,02,02,04,48,4.40
2021,02,02,04,49,4.40
2021,02,02,04,50,4.40
2021,02,02,04,51,4.40
2021,02,02,04,52,4.50
2021,02,02,04,53,4.40
2021,02,02,04,54,4.40
2021,02,02,04,55,4.40
2021,02,02,04,56,4.50
2021,02,02,04,57,4.40
2021,02,02,04,58,4.40
2021,02,02,04,59,4.40
2021,02,02,05,00,4.40
2021,02,02,05,01,4.40
2021,02,02,05,02,4.40
2021,02,02,05,03,4.40
2021,02,02,05,04,4.40
2021,02,02,05,05,4.40
2021,02,02,05,06,4.40
2021,02,02,05,07,4.40
2021,02,02,05,08,4.40
2021,02,02,05,09,4.30
2021,02,02,05,10,4.40
2021,02,02,05,11,4.30
2021,02,02,05,12,4.40
2021,02,02,05,13,4.30
2021,02,02,05,14,4.40
2021,02,02,05,15,4.40
2021,02,02,05,16,4.40
2021,02,02,05,17,4.40
2021,02,02,05,18,4.40
2021,02,02,05,19,4.40
2021,02,02,05,20,4.40
2021,02,02,05,21,4.40
2021,02,02,05,22,4.30
2021,02,02,05,23,4.30
2021,02,02,05,24,4.30
2021,02,02,05,25,4.30
2021,02,02,05,26,4.30
2021,02,02,05,27,4.30
2021,02,02,05,28,4.30
2021,02,02,05,29,4.30
2021,02,02,05,30,4.30
2021,02,02,05,31,4.30
2021,02,02,05,32,4.30
2021,02,02,05,33,4.30
2021,02,02,05,34,4.30
2021,02,02,05,35,4.20
2021,02,02,05,36,4.20
2021,02,02,05,37,4.20
2021,02,02,05,38,4.20
2021,02,02,05,39,4.20
2021,02,02,05,40,4.20
2021,02,02,05,41,4.20
2021,02,02,05,42,4.10
2021,02,02,05,43,4.10
2021,02,02,05,44,4.10
2021,02,02,05,45,4.10
2021,02,02,05,46,4.10
2021,02,02,05,47,4.00
2021,02,02,05,48,4.00
2021,02,02,05,49,4.00
2021,02,02,05,50,4.00
2021,02,02,05,51,3.90
2021,02,02,05,52,3.90
2021,02,02,05,53,3.90
2021,02,02,05,54,3.90
2021,02,02,05,55,3.90
2021,02,02,05,56,3.90
2021,02,02,05,57,3.90
2021,02,02,05,58,3.90
2021,02,02,05,59,3.90
2021,02,02,06,00,3.90
2021,02,02,06,01,3.90
2021,02,02,06,02,3.90
2021,02,02,06,03,3.80
2021,02,02,06,04,3.80
2021,02,02,06,05,3.90
2021,02,02,06,06,3.80
2021,02,02,06,07,3.80
2021,02,02,06,08,3.90
2021,02,02,06,09,3.90
2021,02,02,06,10,3.90
2021,02,02,06,11,3.90
2021,02,02,06,12,4.00
2021,02,02,06,13,4.00
2021,02,02,06,14,4.00
2021,02,02,06,15,4.10
2021,02,02,06,16,4.10
2021,02,02,06,17,4.10
2021,02,02,06,18,4.10
2021,02,02,06,19,4.20
2021,02,02,06,20,4.20
2021,02,02,06,21,4.20
2021,02,02,06,22,4.20
2021,02,02,06,23,4.20
2021,02,02,06,24,4.20
2021,02,02,06,25,4.20
2021,02,02,06,26,4.20
2021,02,02,06,27,4.20
2021,02,02,06,28,4.20
2021,02,02,06,29,4.20
2021,02,02,06,30,4.30
2021,02,02,06,31,4.30
2021,02,02,06,32,4.30
2021,02,02,06,33,4.30
2021,02,02,06,34,4.30
2021,02,02,06,35,4.30
2021,02,02,06,36,4.30
2021,02,02,06,37,4.30
2021,02,02,06,38,4.30
2021,02,02,06,39,4.30
2021,02,02,06,40,4.30
2021,02,02,06,41,4.30
2021,02,02,06,42,4.30
2021,02,02,06,43,4.30
2021,02,02,06,44,4.30
2021,02,02,06,45,4.30
2021,02,02,06,46,4.30
2021,02,02,06,47,4.30
2021,02,02,06,48,4.30
2021,02,02,06,49,4.30
2021,02,02,06,50,4.30
2021,02,02,06,51,4.30
2021,02,02,06,52,4.30
2021,02,02,06,53,4.30
2021,02,02,06,54,4.30
2021,02,02,06,55,4.30
2021,02,02,06,56,4.30
2021,02,02,06,57,4.30
2021,02,02,06,58,4.30
2021,02,02,06,59,4.30
2021,02,02,07,00,4.30
2021,02,02,07,01,4.30
2021,02,02,07,02,4.30
2021,02,02,07,03,4.30
2021,02,02,07,04,4.30
2021,02,02,07,05,4.30
2021,02,02,07,06,4.40
2021,02,02,07,07,4.40
2021,02,02,07,08,4.40
2021,02,02,07,09,4.40
2021,02,02,07,10,4.40
2021,02,02,07,11,4.40
2021,02,02,07,12,4.40
2021,02,02,07,13,4.40
2021,02,02,07,14,4.40
2021,02,02,07,15,4.40
2021,02,02,07,16,4.40
2021,02,02,07,17,4.40
2021,02,02,07,18,4.40
2021,02,02,07,19,4.40
2021,02,02,07,20,4.40
2021,02,02,07,21,4.40
2021,02,02,07,22,4.40
2021,02,02,07,23,4.40
2021,02,02,07,24,4.40
2021,02,02,07,25,4.40
2021,02,02,07,26,4.40
2021,02,02,07,27,4.40
2021,02,02,07,28,4.40
2021,02,02,07,29,4.40
2021,02,02,07,30,4.40
2021,02,02,07,31,4.40
2021,02,02,07,32,4.40
2021,02,02,07,33,4.40
2021,02,02,07,34,4.40
2021,02,02,07,35,4.40
2021,02,02,07,36,4.40
2021,02,02,07,37,4.40
2021,02,02,07,38,4.40
2021,02,02,07,39,4.40
2021,02,02,07,40,4.40
2021,02,02,07,41,4.40
2021,02,02,07,42,4.40
2021,02,02,07,43,4.40
2021,02,02,07,44,4.40
2021,02,02,07,45,4.40
2021,02,02,07,46,4.40
2021,02,02,07,47,4.40
2021,02,02,07,48,4.40
2021,02,02,07,49,4.40
2021,02,02,07,50,4.40
2021,02,02,07,51,4.40
2021,02,02,07,52,4.40
2021,02,02,07,53,4.40
2021,02,02,07,54,4.40
2021,02,02,07,55,4.50
2021,02,02,07,56,4.50
2021,02,02,07,57,4.40
2021,02,02,07,58,4.50
2021,02,02,07,59,4.50
2021,02,02,08,00,4.50
2021,02,02,08,01,4.50
2021,02,02,08,02,4.50
2021,02,02,08,03,4.50
2021,02,02,08,04,4.50
2021,02,02,08,05,4.50
2021,02,02,08,06,4.40
2021,02,02,08,07,4.50
2021,02,02,08,08,4.50
2021,02,02,08,09,4.40
2021,02,02,08,10,4.40
2021,02,02,08,11,4.40
2021,02,02,08,12,4.40
2021,02,02,08,13,4.40
2021,02,02,08,14,4.40
2021,02,02,08,15,4.40
2021,02,02,08,16,4.40
2021,02,02,08,17,4.40
2021,02,02,08,18,4.40
2021,02,02,08,19,4.40
2021,02,02,08,20,4.40
2021,02,02,08,21,4.40
2021,02,02,08,22,4.40
2021,02,02,08,23,4.40
2021,02,02,08,24,4.40
2021,02,02,08,25,4.40
2021,02,02,08,26,4.40
2021,02,02,08,27,4.40
2021,02,02,08,28,4.40
2021,02,02,08,29,4.30
2021,02,02,08,30,4.30
2021,02,02,08,31,4.40
2021,02,02,08,32,4.30
2021,02,02,08,33,4.30
2021,02,02,08,34,4.30
2021,02,02,08,35,4.30
2021,02,02,08,36,4.40
2021,02,02,08,37,4.40
2021,02,02,08,38,4.40
2021,02,02,08,39,4.40
2021,02,02,08,40,4.40
2021,02,02,08,41,4.40
2021,02,02,08,42,4.40
2021,02,02,08,43,4.50
2021,02,02,08,44,4.40
2021,02,02,08,45,4.50
2021,02,02,08,46,4.50
2021,02,02,08,47,4.50
2021,02,02,08,48,4.50
2021,02,02,08,49,4.50
2021,02,02,08,50,4.50
2021,02,02,08,51,4.50
2021,02,02,08,52,4.50
2021,02,02,08,53,4.50
2021,02,02,08,54,4.50
2021,02,02,08,55,4.50
2021,02,02,08,56,4.50
2021,02,02,08,57,4.50
2021,02,02,08,58,4.50
2021,02,02,08,59,4.50
2021,02,02,09,00,4.50
2021,02,02,09,01,4.50
2021,02,02,09,02,4.50
2021,02,02,09,03,4.50
2021,02,02,09,04,4.50
2021,02,02,09,05,4.50
2021,02,02,09,06,4.60
2021,02,02,09,07,4.60
2021,02,02,09,08,4.60
2021,02,02,09,09,4.60
2021,02,02,09,10,4.60
2021,02,02,09,11,4.60
2021,02,02,09,12,4.60
2021,02,02,09,13,4.60
2021,02,02,09,14,4.60
2021,02,02,09,15,4.60
2021,02,02,09,16,4.60
2021,02,02,09,17,4.60
2021,02,02,09,18,4.60
2021,02,02,09,19,4.60
2021,02,02,09,20,4.60
2021,02,02,09,21,4.60
2021,02,02,09,22,4.60
2021,02,02,09,23,4.60
2021,02,02,09,24,4.60
2021,02,02,09,25,4.60
2021,02,02,09,26,4.60
2021,02,02,09,27,4.60
2021,02,02,09,28,4.60
2021,02,02,09,29,4.60
2021,02,02,09,30,4.60
2021,02,02,09,31,4.60
2021,02,02,09,32,4.60
2021,02,02,09,33,4.60
2021,02,02,09,34,4.60
2021,02,02,09,35,4.60
2021,02,02,09,36,4.60
2021,02,02,09,37,4.60
2021,02,02,09,38,4.60
2021,02,02,09,39,4.70
2021,02,02,09,40,4.70
2021,02,02,09,41,4.70
2021,02,02,09,42,4.70
2021,02,02,09,43,4.70
2021,02,02,09,44,4.70
2021,02,02,09,45,4.70
2021,02,02,09,46,4.70
2021,02,02,09,47,4.70
2021,02,02,09,48,4.70
2021,02,02,09,49,4.60
2021,02,02,09,50,4.70
2021,02,02,09,51,4.70
2021,02,02,09,52,4.70
2021,02,02,09,53,4.70
2021,02,02,09,54,4.70
2021,02,02,09,55,4.70
2021,02,02,09,56,4.70
2021,02,02,09,57,4.60
2021,02,02,09,58,4.60
2021,02,02,09,59,4.60
2021,02,02,10,00,4.60
2021,02,02,10,01,4.60
2021,02,02,10,02,4.60
2021,02,02,10,03,4.60
2021,02,02,10,04,4.60
2021,02,02,10,05,4.60
2021,02,02,10,06,4.60
2021,02,02,10,07,4.60
2021,02,02,10,08,4.60
2021,02,02,10,09,4.60
2021,02,02,10,10,4.50
2021,02,02,10,11,4.50
2021,02,02,10,12,4.50
2021,02,02,10,13,4.50
2021,02,02,10,14,4.50
2021,02,02,10,15,4.50
2021,02,02,10,16,4.50
2021,02,02,10,17,4.50
2021,02,02,10,18,4.50
2021,02,02,10,19,4.50
2021,02,02,10,20,4.50
2021,02,02,10,21,4.50
2021,02,02,10,22,4.50
2021,02,02,10,23,4.50
2021,02,02,10,24,4.50
2021,02,02,10,25,4.50
2021,02,02,10,26,4.50
2021,02,02,10,27,4.50
2021,02,02,10,28,4.50
2021,02,02,10,29,4.50
2021,02,02,10,30,4.50
2021,02,02,10,31,4.50
2021,02,02,10,32,4.50
2021,02,02,10,33,4.50
2021,02,02,10,34,4.50
2021,02,02,10,35,4.50
2021,02,02,10,36,4.50
2021,02,02,10,37,4.50
2021,02,02,10,38,4.40
2021,02,02,10,39,4.40
2021,02,02,10,40,4.40
2021,02,02,10,41,4.40
2021,02,02,10,42,4.40
2021,02,02,10,43,4.40
2021,02,02,10,44,4.40
2021,02,02,10,45,4.40
2021,02,02,10,46,4.40
2021,02,02,10,47,4.40
2021,02,02,10,48,4.40
2021,02,02,10,49,4.40
2021,02,02,10,50,4.40
2021,02,02,10,51,4.40
2021,02,02,10,52,4.40
2021,02,02,10,53,4.40
2021,02,02,10,54,4.40
2021,02,02,10,55,4.40
2021,02,02,10,56,4.40
2021,02,02,10,57,4.50
2021,02,02,10,58,4.40
2021,02,02,10,59,4.40
2021,02,02,11,00,4.40
2021,02,02,11,01,4.40
2021,02,02,11,02,4.40
2021,02,02,11,03,4.50
2021,02,02,11,04,4.50
2021,02,02,11,05,4.40
2021,02,02,11,06,4.50
2021,02,02,11,07,4.50
2021,02,02,11,08,4.50
2021,02,02,11,09,4.50
2021,02,02,11,10,4.50
2021,02,02,11,11,4.50
2021,02,02,11,12,4.60
2021,02,02,11,13,4.60
2021,02,02,11,14,4.60
2021,02,02,11,15,4.60
2021,02,02,11,16,4.60
2021,02,02,11,17,4.70
2021,02,02,11,18,4.70
2021,02,02,11,19,4.70
2021,02,02,11,20,4.80
2021,02,02,11,21,4.80
2021,02,02,11,22,4.80
2021,02,02,11,23,4.80
2021,02,02,11,24,4.80
2021,02,02,11,25,4.80
2021,02,02,11,26,4.90
2021,02,02,11,27,4.90
2021,02,02,11,28,4.90
2021,02,02,11,29,4.90
2021,02,02,11,30,4.90
2021,02,02,11,31,4.90
2021,02,02,11,32,4.90
2021,02,02,11,33,5.00
2021,02,02,11,34,4.90
2021,02,02,11,35,5.00
2021,02,02,11,36,5.00
2021,02,02,11,37,5.00
2021,02,02,11,38,5.00
2021,02,02,11,39,5.10
2021,02,02,11,40,5.10
2021,02,02,11,41,5.10
2021,02,02,11,42,5.20
2021,02,02,11,43,5.20
2021,02,02,11,44,5.20
2021,02,02,11,45,5.30
2021,02,02,11,46,5.30
2021,02,02,11,47,5.30
2021,02,02,11,48,5.40
2021,02,02,11,49,5.40
2021,02,02,11,50,5.50
2021,02,02,11,51,5.50
2021,02,02,11,52,5.50
2021,02,02,11,53,5.60
2021,02,02,11,54,5.50
2021,02,02,11,55,5.50
2021,02,02,11,56,5.50
2021,02,02,11,57,5.50
2021,02,02,11,58,5.50
2021,02,02,11,59,5.50
2021,02,02,12,00,5.50
2021,02,02,12,01,5.50
2021,02,02,12,02,5.50
2021,02,02,12,03,5.50
2021,02,02,12,04,5.50
2021,02,02,12,05,5.50
2021,02,02,12,06,5.50
2021,02,02,12,07,5.60
2021,02,02,12,08,5.60
2021,02,02,12,09,5.60
2021,02,02,12,10,5.60
2021,02,02,12,11,5.70
2021,02,02,12,12,5.70
2021,02,02,12,13,5.70
2021,02,02,12,14,5.70
2021,02,02,12,15,5.70
2021,02,02,12,16,5.70
2021,02,02,12,17,5.70
2021,02,02,12,18,5.70
2021,02,02,12,19,5.70
2021,02,02,12,20,5.70
2021,02,02,12,21,5.70
2021,02,02,12,22,5.80
2021,02,02,12,23,5.80
2021,02,02,12,24,5.80
2021,02,02,12,25,5.80
2021,02,02,12,26,5.80
2021,02,02,12,27,5.80
2021,02,02,12,28,5.80
2021,02,02,12,29,5.80
2021,02,02,12,30,5.80
2021,02,02,12,31,5.90
2021,02,02,12,32,5.90
2021,02,02,12,33,5.90
2021,02,02,12,34,5.90
2021,02,02,12,35,5.90
2021,02,02,12,36,5.90
2021,02,02,12,37,5.90
2021,02,02,12,38,6.00
2021,02,02,12,39,6.00
2021,02,02,12,40,6.00
2021,02,02,12,41,6.10
2021,02,02,12,42,6.10
2021,02,02,12,43,6.10
2021,02,02,12,44,6.10
2021,02,02,12,45,6.10
2021,02,02,12,46,6.10
2021,02,02,12,47,6.10
2021,02,02,12,48,6.10
2021,02,02,12,49,6.10
2021,02,02,12,50,6.10
2021,02,02,12,51,6.10
2021,02,02,12,52,6.20
2021,02,02,12,53,6.20
2021,02,02,12,54,6.20
2021,02,02,12,55,6.30
2021,02,02,12,56,6.30
2021,02,02,12,57,6.30
2021,02,02,12,58,6.30
2021,02,02,12,59,6.40
2021,02,02,13,00,6.40
2021,02,02,13,01,6.50
2021,02,02,13,02,6.50
2021,02,02,13,03,6.60
2021,02,02,13,04,6.60
2021,02,02,13,05,6.60
2021,02,02,13,06,6.70
2021,02,02,13,07,6.70
2021,02,02,13,08,6.80
2021,02,02,13,09,6.80
2021,02,02,13,10,6.90
2021,02,02,13,11,6.90
2021,02,02,13,12,7.00
2021,02,02,13,13,7.10
2021,02,02,13,14,7.10
2021,02,02,13,15,7.10
2021,02,02,13,16,7.20
2021,02,02,13,17,7.20
2021,02,02,13,18,7.20
2021,02,02,13,19,7.20
2021,02,02,13,20,7.20
2021,02,02,13,21,7.20
2021,02,02,13,22,7.10
2021,02,02,13,23,7.10
2021,02,02,13,24,7.10
2021,02,02,13,25,7.10
2021,02,02,13,26,7.00
2021,02,02,13,27,7.00
2021,02,02,13,28,6.90
2021,02,02,13,29,6.90
2021,02,02,13,30,6.90
2021,02,02,13,31,6.90
2021,02,02,13,32,6.90
2021,02,02,13,33,6.80
2021,02,02,13,34,6.80
2021,02,02,13,35,6.80
2021,02,02,13,36,6.80
2021,02,02,13,37,6.80
2021,02,02,13,38,6.80
2021,02,02,13,39,6.80
2021,02,02,13,40,6.80
2021,02,02,13,41,6.80
2021,02,02,13,42,6.80
2021,02,02,13,43,6.80
2021,02,02,13,44,6.80
2021,02,02,13,45,6.80
2021,02,02,13,46,6.80
2021,02,02,13,47,6.80
2021,02,02,13,48,6.80
2021,02,02,13,49,6.80
2021,02,02,13,50,6.70
2021,02,02,13,51,6.70
2021,02,02,13,52,6.70
2021,02,02,13,53,6.70
2021,02,02,13,54,6.60
2021,02,02,13,55,6.60
2021,02,02,13,56,6.60
2021,02,02,13,57,6.60
2021,02,02,13,58,6.50
2021,02,02,13,59,6.60
2021,02,02,14,00,6.60
2021,02,02,14,01,6.50
2021,02,02,14,02,6.50
2021,02,02,14,03,6.50
2021,02,02,14,04,6.50
2021,02,02,14,05,6.50
2021,02,02,14,06,6.50
2021,02,02,14,07,6.50
2021,02,02,14,08,6.40
2021,02,02,14,09,6.40
2021,02,02,14,10,6.40
2021,02,02,14,11,6.40
2021,02,02,14,12,6.40
2021,02,02,14,13,6.30
2021,02,02,14,14,6.30
2021,02,02,14,15,6.30
2021,02,02,14,16,6.30
2021,02,02,14,17,6.20
2021,02,02,14,18,6.20
2021,02,02,14,19,6.20
2021,02,02,14,20,6.10
2021,02,02,14,21,6.10
2021,02,02,14,22,6.10
2021,02,02,14,23,6.10
2021,02,02,14,24,6.10
2021,02,02,14,25,6.10
2021,02,02,14,26,6.00
2021,02,02,14,27,6.00
2021,02,02,14,28,6.00
2021,02,02,14,29,6.00
2021,02,02,14,30,6.00
2021,02,02,14,31,6.00
2021,02,02,14,32,6.00
2021,02,02,14,33,6.00
2021,02,02,14,34,6.00
2021,02,02,14,35,6.00
2021,02,02,14,36,6.00
2021,02,02,14,37,6.00
2021,02,02,14,38,6.00
2021,02,02,14,39,6.00
2021,02,02,14,40,5.90
2021,02,02,14,41,5.90
2021,02,02,14,42,5.90
2021,02,02,14,43,5.90
2021,02,02,14,44,5.90
2021,02,02,14,45,5.90
2021,02,02,14,46,5.90
2021,02,02,14,47,5.90
2021,02,02,14,48,5.90
2021,02,02,14,49,5.90
2021,02,02,14,50,5.90
2021,02,02,14,51,5.90
2021,02,02,14,52,5.90
2021,02,02,14,53,5.90
2021,02,02,14,54,6.00
2021,02,02,14,55,6.00
2021,02,02,14,56,6.00
2021,02,02,14,57,6.00
2021,02,02,14,58,6.00
2021,02,02,14,59,6.00
2021,02,02,15,00,6.00
2021,02,02,15,01,6.10
2021,02,02,15,02,6.10
2021,02,02,15,03,6.10
2021,02,02,15,04,6.10
2021,02,02,15,05,6.10
2021,02,02,15,06,6.10
2021,02,02,15,07,6.10
2021,02,02,15,08,6.10
2021,02,02,15,09,6.10
2021,02,02,15,10,6.10
2021,02,02,15,11,6.10
2021,02,02,15,12,6.10
2021,02,02,15,13,6.10
2021,02,02,15,14,6.20
2021,02,02,15,15,6.10
2021,02,02,15,16,6.10
2021,02,02,15,17,6.10
2021,02,02,15,18,6.20
2021,02,02,15,19,6.20
2021,02,02,15,20,6.20
2021,02,02,15,21,6.20
2021,02,02,15,22,6.20
2021,02,02,15,23,6.20
2021,02,02,15,24,6.20
2021,02,02,15,25,6.20
2021,02,02,15,26,6.30
2021,02,02,15,27,6.30
2021,02,02,15,28,6.30
2021,02,02,15,29,6.30
2021,02,02,15,30,6.30
2021,02,02,15,31,6.30
2021,02,02,15,32,6.30
2021,02,02,15,33,6.30
2021,02,02,15,34,6.30
2021,02,02,15,35,6.30
2021,02,02,15,36,6.30
2021,02,02,15,37,6.30
2021,02,02,15,38,6.30
2021,02,02,15,39,6.30
2021,02,02,15,40,6.30
2021,02,02,15,41,6.30
2021,02,02,15,42,6.30
2021,02,02,15,43,6.30
2021,02,02,15,44,6.30
2021,02,02,15,45,6.30
2021,02,02,15,46,6.30
2021,02,02,15,47,6.30
2021,02,02,15,48,6.20
2021,02,02,15,49,6.20
2021,02,02,15,50,6.20
2021,02,02,15,51,6.20
2021,02,02,15,52,6.20
2021,02,02,15,53,6.10
2021,02,02,15,54,6.10
2021,02,02,15,55,6.10
2021,02,02,15,56,6.10
2021,02,02,15,57,6.10
2021,02,02,15,58,6.10
2021,02,02,15,59,6.20
2021,02,02,16,00,6.10
2021,02,02,16,01,6.20
2021,02,02,16,02,6.20
2021,02,02,16,03,6.20
2021,02,02,16,04,6.20
2021,02,02,16,05,6.20
2021,02,02,16,06,6.20
2021,02,02,16,07,6.20
2021,02,02,16,08,6.20
2021,02,02,16,09,6.10
2021,02,02,16,10,6.10
2021,02,02,16,11,6.10
2021,02,02,16,12,6.10
2021,02,02,16,13,6.10
2021,02,02,16,14,6.10
2021,02,02,16,15,6.00
2021,02,02,16,16,6.00
2021,02,02,16,17,6.00
2021,02,02,16,18,6.00
2021,02,02,16,19,6.00
2021,02,02,16,20,5.90
2021,02,02,16,21,5.90
2021,02,02,16,22,5.90
2021,02,02,16,23,5.90
2021,02,02,16,24,5.80
2021,02,02,16,25,5.80
2021,02,02,16,26,5.80
2021,02,02,16,27,5.70
2021,02,02,16,28,5.70
2021,02,02,16,29,5.60
2021,02,02,16,30,5.60
2021,02,02,16,31,5.60
2021,02,02,16,32,5.50
2021,02,02,16,33,5.40
2021,02,02,16,34,5.40
2021,02,02,16,35,5.40
2021,02,02,16,36,5.40
2021,02,02,16,37,5.40
2021,02,02,16,38,5.40
2021,02,02,16,39,5.40
2021,02,02,16,40,5.40
2021,02,02,16,41,5.40
2021,02,02,16,42,5.40
2021,02,02,16,43,5.40
2021,02,02,16,44,5.40
2021,02,02,16,45,5.40
2021,02,02,16,46,5.40
2021,02,02,16,47,5.30
2021,02,02,16,48,5.30
2021,02,02,16,49,5.30
2021,02,02,16,50,5.30
2021,02,02,16,51,5.20
2021,02,02,16,52,5.20
2021,02,02,16,53,5.20
2021,02,02,16,54,5.20
2021,02,02,16,55,5.20
2021,02,02,16,56,5.20
2021,02,02,16,57,5.10
2021,02,02,16,58,5.10
2021,02,02,16,59,5.10
2021,02,02,17,00,5.10
2021,02,02,17,01,5.10
2021,02,02,17,02,5.10
2021,02,02,17,03,5.10
2021,02,02,17,04,5.10
2021,02,02,17,05,5.00
2021,02,02,17,06,5.00
2021,02,02,17,07,5.00
2021,02,02,17,08,5.00
2021,02,02,17,09,4.90
2021,02,02,17,10,5.00
2021,02,02,17,11,4.90
2021,02,02,17,12,4.90
2021,02,02,17,13,4.90
2021,02,02,17,14,4.90
2021,02,02,17,15,4.90
2021,02,02,17,16,4.90
2021,02,02,17,17,4.90
2021,02,02,17,18,4.90
2021,02,02,17,19,4.80
2021,02,02,17,20,4.80
2021,02,02,17,21,4.80
2021,02,02,17,22,4.80
2021,02,02,17,23,4.80
2021,02,02,17,24,4.80
2021,02,02,17,25,4.70
2021,02,02,17,26,4.70
2021,02,02,17,27,4.70
2021,02,02,17,28,4.70
2021,02,02,17,29,4.70
2021,02,02,17,30,4.70
2021,02,02,17,31,4.70
2021,02,02,17,32,4.70
2021,02,02,17,33,4.70
2021,02,02,17,34,4.80
2021,02,02,17,35,4.80
2021,02,02,17,36,4.80
2021,02,02,17,37,4.80
2021,02,02,17,38,4.90
2021,02,02,17,39,4.90
2021,02,02,17,40,4.90
2021,02,02,17,41,4.90
2021,02,02,17,42,4.90
2021,02,02,17,43,4.90
2021,02,02,17,44,4.90
2021,02,02,17,45,4.90
2021,02,02,17,46,4.90
2021,02,02,17,47,4.90
2021,02,02,17,48,4.90
2021,02,02,17,49,5.00
2021,02,02,17,50,4.90
2021,02,02,17,51,5.00
2021,02,02,17,52,5.00
2021,02,02,17,53,5.00
2021,02,02,17,54,5.00
2021,02,02,17,55,5.00
2021,02,02,17,56,5.00
2021,02,02,17,57,5.00
2021,02,02,17,58,5.00
2021,02,02,17,59,5.00
2021,02,02,18,00,5.00
2021,02,02,18,01,5.00
2021,02,02,18,02,5.00
2021,02,02,18,03,5.00
2021,02,02,18,04,5.00
2021,02,02,18,05,5.00
2021,02,02,18,06,5.00